Wind_Speed
38 37 36 36 37 38 38 36 33 31 33 34 35 36 36 36 33 32 33 33 38 52 64 73 80 84 86 85 82 80 79 77 74 71 68 64 61 59 56 54 51 48 44 41 41 40 38 37 36 38 41 42 42 40 38 38 35 31 30 31 28 27 29 30 28 25 24 26 25 20 15 15 17 18 19 17 15 14 13 12 12 11 12 13 14 15
36 35 34 32 33 34 35 34 32 31 33 34 35 36 35 35 35 34 33 31 34 44 56 66 75 81 84 85 83 81 81 78 75 73 70 66 63 60 58 56 53 49 46 43 42 41 39 39 37 37 38 41 42 41 41 40 36 33 30 28 25 24 25 27 27 24 23 25 24 18 15 17 17 18 19 17 15 14 13 13 12 12 13 14 14 15
32 31 30 30 31 32 33 32 31 31 33 33 34 35 34 34 35 34 32 31 31 38 47 56 68 76 81 85 83 82 81 79 76 74 72 68 64 62 60 57 54 50 47 45 42 40 40 40 39 37 37 39 42 43 44 41 36 34 32 28 26 24 23 24 25 24 24 25 24 19 17 19 18 19 19 17 16 15 14 13 12 12 13 14 14 15
30 30 29 29 30 31 31 31 30 31 31 31 32 33 32 32 34 33 32 32 31 33 39 48 61 71 76 82 83 82 82 80 78 76 73 70 66 64 61 58 54 50 47 45 43 41 39 38 38 37 36 38 40 43 43 40 35 33 34 32 29 26 24 22 22 24 26 27 25 21 19 19 18 19 18 18 16 15 14 13 12 12 13 14 14 16
30 30 30 30 29 28 28 29 29 31 30 28 30 31 29 27 30 32 33 33 30 28 31 40 54 65 72 79 82 81 82 82 79 76 75 72 68 66 62 58 54 49 46 45 45 42 39 37 37 37 37 38 39 41 42 39 34 33 34 33 32 31 26 22 23 26 29 29 26 21 19 18 18 18 18 17 16 14 14 14 12 13 13 14 15 16
31 30 30 30 29 27 26 27 29 31 30 28 27 27 25 24 24 27 30 29 25 20 21 31 46 58 66 73 79 79 80 81 79 76 75 73 70 67 63 59 55 50 47 47 48 46 42 38 37 37 37 37 38 40 41 39 36 34 33 32 32 32 28 25 25 27 31 31 25 20 19 18 17 18 17 16 15 15 15 14 12 13 13 14 15 16
32 31 31 30 29 27 24 26 29 32 32 29 25 25 26 24 21 21 25 23 16 12 14 22 35 48 56 66 74 76 78 79 78 76 75 74 71 68 64 59 56 52 49 48 49 50 47 42 39 38 37 37 39 40 42 41 38 34 33 33 33 30 29 27 24 27 32 31 26 22 20 19 18 18 17 15 15 15 15 13 13 13 14 15 16 17
33 32 31 31 30 28 25 25 28 31 33 29 24 23 25 23 20 18 20 16 10 10 13 15 22 34 48 60 67 71 75 77 76 74 74 75 71 67 64 60 56 53 50 48 48 50 49 46 42 39 38 38 39 42 42 41 38 35 33 33 32 28 28 28 24 26 32 32 28 25 22 21 20 18 17 16 15 15 14 13 13 14 15 16 17 17
35 33 32 32 31 29 26 25 26 29 32 28 21 20 23 24 20 16 14 10 7 9 13 12 14 26 40 52 60 66 71 74 74 73 73 74 72 67 64 61 57 52 50 49 48 50 50 47 44 42 40 39 40 41 39 38 38 38 36 33 31 29 27 25 21 24 31 33 29 26 25 24 22 19 17 16 16 15 15 14 14 15 16 16 17 17
37 36 35 33 31 28 25 23 23 24 27 26 20 17 21 24 20 15 11 9 9 6 8 10 13 21 30 41 53 62 68 72 72 71 71 72 70 66 65 63 58 52 50 49 47 48 49 47 45 42 40 38 38 38 37 37 38 39 39 36 34 33 28 22 18 22 30 33 30 27 26 23 19 19 18 17 17 16 15 14 15 16 17 17 18 17
36 35 34 32 29 25 23 20 19 20 22 22 18 16 19 22 19 16 13 10 9 6 6 11 12 16 24 34 47 58 63 68 69 68 69 71 69 67 67 63 58 54 51 48 45 45 47 46 43 41 39 37 37 38 38 38 38 40 41 38 35 35 31 23 18 23 30 33 32 29 25 20 18 19 19 18 17 16 15 15 16 17 17 18 18 17
34 32 31 29 26 23 20 18 17 17 18 19 18 15 16 18 19 17 16 15 13 8 2 8 11 16 22 27 38 50 56 61 65 64 67 70 69 69 67 62 59 57 52 47 44 44 45 44 41 39 38 36 35 36 38 40 40 41 41 38 34 34 33 26 22 25 31 34 33 29 25 21 19 20 19 19 17 16 16 16 17 17 17 18 17 16
31 30 29 27 25 23 19 17 17 16 16 18 18 15 13 15 19 19 16 16 15 11 6 3 6 13 18 21 30 43 50 57 60 60 64 65 65 68 65 60 59 57 52 46 43 43 44 42 39 38 36 33 33 34 37 40 41 41 41 38 33 33 33 29 26 29 33 36 33 28 25 23 20 18 19 19 17 16 16 17 18 17 16 17 16 15
30 28 28 27 26 24 20 18 17 17 15 16 16 15 13 12 17 20 18 16 15 11 6 5 4 7 14 18 27 38 48 56 58 59 64 63 62 66 63 58 56 52 49 45 41 42 43 42 39 37 36 35 33 34 35 37 38 38 37 34 31 31 31 28 29 32 35 35 30 26 26 23 19 18 19 19 18 17 16 17 18 17 15 15 16 15
32 31 29 29 28 25 22 20 19 18 15 14 14 13 12 9 10 14 16 15 14 8 1 1 3 6 13 16 24 38 49 57 59 61 66 65 63 64 62 57 53 46 44 43 40 41 42 42 41 38 37 36 34 33 31 31 33 34 33 31 29 28 26 26 28 32 33 30 26 25 25 21 18 18 20 20 18 17 17 18 18 16 13 14 15 15
33 33 32 31 30 27 24 21 19 17 15 14 14 11 10 10 9 8 11 12 12 6 2 4 2 6 12 14 22 38 50 57 61 62 64 63 59 59 61 59 52 46 43 41 40 42 43 43 42 39 37 35 33 30 28 28 30 31 30 30 28 25 23 24 27 31 30 27 24 23 21 18 17 19 20 19 18 17 18 18 16 14 13 14 15 15
34 34 33 32 30 29 25 21 18 16 14 14 14 11 8 9 11 9 9 10 8 8 6 4 5 6 11 15 23 39 51 57 61 62 62 60 50 49 59 59 52 50 48 44 43 45 45 44 42 39 36 32 29 27 27 28 29 29 29 29 27 23 22 25 29 31 28 24 20 19 18 18 19 19 19 18 18 17 17 16 15 13 13 14 14 15
37 36 35 33 31 30 27 21 18 16 14 13 13 11 8 7 10 11 10 8 4 4 6 4 2 4 12 17 25 42 53 57 62 64 63 58 43 41 56 58 50 50 51 48 47 45 44 43 41 39 35 30 27 27 28 28 28 27 27 27 25 22 23 29 30 27 22 18 16 16 16 17 18 18 17 17 17 16 15 15 14 13 13 14 14 16
38 38 37 35 32 31 28 24 20 16 14 12 11 10 9 6 7 9 9 6 2 1 2 2 1 2 10 18 30 46 53 57 62 61 58 54 41 38 53 56 49 50 51 50 47 43 41 40 39 37 34 30 28 28 28 27 27 26 25 25 23 21 26 29 25 19 17 15 14 13 14 16 17 16 16 16 15 14 14 14 13 13 13 13 14 16
38 39 40 37 33 31 29 26 22 16 14 13 11 8 7 6 6 7 7 7 3 1 1 5 5 2 6 17 32 48 53 56 58 55 56 56 44 38 49 54 50 49 49 47 44 41 40 39 38 35 33 30 29 29 27 25 25 24 23 24 22 22 25 24 19 17 16 14 12 12 13 14 15 14 14 14 13 13 13 13 14 14 13 13 14 16
37 39 39 38 35 32 30 27 23 17 14 13 11 8 6 7 8 6 5 8 6 3 2 5 8 5 5 13 31 49 55 56 57 57 58 54 43 40 46 50 49 47 46 45 43 41 40 38 37 35 32 30 29 28 26 25 25 23 23 24 23 22 23 22 20 18 15 13 13 13 13 13 13 13 13 13 12 12 13 14 14 14 13 13 14 16
36 38 40 39 37 33 31 29 25 20 16 14 12 10 8 5 6 7 7 8 8 3 0 3 6 7 7 10 28 49 55 55 56 54 49 43 40 42 45 44 44 43 43 43 42 40 38 36 35 34 31 29 27 26 25 25 25 24 24 24 24 24 24 23 22 18 16 16 16 15 15 15 14 14 14 13 13 14 15 15 14 13 13 14 15 17
34 37 40 41 39 36 33 31 28 24 21 18 15 12 10 7 7 7 7 8 6 2 3 6 7 8 9 10 25 48 56 55 53 45 38 38 39 42 44 42 40 38 38 39 38 36 34 33 33 32 29 26 24 26 25 25 25 24 24 24 25 26 25 24 22 20 19 18 17 16 16 16 16 17 16 15 15 15 15 15 13 13 13 15 16 17
33 35 37 38 37 35 34 32 31 28 25 23 19 14 12 10 8 7 7 6 4 3 6 9 9 9 11 11 22 45 58 57 50 39 36 39 38 38 40 41 38 34 32 33 32 31 30 29 29 28 26 23 23 26 26 25 25 24 24 25 25 25 25 22 21 21 21 19 19 18 17 17 18 18 17 16 16 15 15 14 13 13 14 16 17 18
33 35 36 37 36 35 32 31 31 29 25 23 21 18 15 13 9 6 6 5 6 8 9 9 9 9 12 12 20 39 55 58 47 33 32 37 35 34 35 36 36 33 30 29 29 29 28 27 26 25 24 22 24 27 28 26 25 25 25 26 25 24 23 21 21 20 20 20 19 19 19 18 19 19 18 16 15 15 15 14 13 14 15 16 18 19
32 34 36 38 39 39 38 36 34 30 25 22 21 21 20 17 12 9 7 6 8 11 11 10 9 9 11 14 21 31 46 54 43 27 28 33 31 30 28 28 30 30 28 27 27 27 27 27 26 26 25 24 25 28 29 27 26 25 26 27 26 25 24 23 22 20 18 18 19 20 19 19 20 19 17 15 16 16 15 14 14 15 16 17 18 19
29 31 33 36 38 40 41 40 37 33 27 22 21 22 22 20 15 12 11 9 10 11 11 12 12 11 13 17 22 28 40 48 37 23 24 27 26 25 26 26 27 27 26 24 24 24 25 26 26 26 25 25 26 28 28 27 26 27 27 28 29 28 27 25 21 18 17 18 19 19 19 20 20 18 16 16 16 15 14 14 14 16 17 18 19 20
26 28 30 32 34 36 39 39 38 35 31 25 22 22 22 21 17 14 12 11 10 9 9 12 14 15 16 19 22 30 41 42 29 20 22 24 24 26 27 26 25 23 23 23 23 23 23 24 26 27 27 27 27 29 29 29 29 29 29 30 31 30 28 24 18 16 17 18 18 19 20 20 19 17 17 16 16 14 14 14 15 17 19 19 20 21
24 25 27 29 31 33 35 37 38 37 34 29 26 24 23 21 19 16 14 14 14 13 12 12 15 17 18 21 27 34 39 36 26 23 25 25 26 27 28 27 24 22 22 22 22 22 21 22 24 25 26 27 28 30 31 31 31 31 30 30 30 29 25 20 17 16 18 18 19 20 20 19 18 17 16 15 14 14 14 15 17 18 20 20 21 21
22 23 24 26 27 29 31 33 36 37 36 32 29 28 26 24 20 16 14 14 15 16 16 15 15 18 20 24 31 36 37 34 31 30 29 28 28 29 29 27 25 23 22 21 21 21 20 21 22 23 24 25 26 28 30 30 31 31 30 30 30 27 22 18 16 16 17 18 20 20 19 18 17 15 14 13 13 14 15 17 18 20 21 21 22 22
20 20 22 23 24 26 27 29 32 34 35 34 31 30 30 28 24 18 13 11 12 14 15 16 17 19 21 25 30 32 32 32 31 30 29 29 31 32 30 27 25 23 21 21 21 22 20 19 20 21 22 23 25 26 27 26 26 25 24 25 24 20 16 15 16 17 18 19 19 18 17 16 15 14 13 13 14 15 17 19 20 21 22 22 23 22
18 19 20 21 21 22 24 25 27 29 31 33 32 31 30 30 29 25 20 16 14 12 13 14 14 16 19 21 24 25 26 26 27 28 28 29 29 29 27 26 24 23 22 22 21 21 20 18 18 19 20 19 20 20 20 19 17 16 16 16 15 13 12 14 16 17 18 18 17 16 16 16 15 14 14 14 16 17 19 20 22 23 23 23 23 22
16 17 17 18 19 20 21 22 23 24 26 28 30 30 29 29 29 28 27 26 23 21 18 17 15 14 17 20 20 20 22 24 25 26 27 27 26 25 26 26 25 24 24 23 20 18 17 16 17 17 17 16 15 15 15 15 14 13 12 12 11 12 13 15 16 16 17 17 16 16 17 17 17 16 16 16 17 19 20 22 23 23 24 24 23 22
14 15 16 16 16 17 18 19 20 20 21 23 25 26 27 27 27 27 28 28 27 26 26 25 23 23 23 22 21 20 21 22 23 24 24 23 23 22 22 21 20 19 20 19 17 16 16 16 16 16 16 15 15 14 13 13 12 11 11 11 11 12 13 14 15 16 17 17 18 19 19 19 19 18 17 17 18 20 21 23 23 24 25 24 23 23
11 12 14 14 14 15 16 17 17 18 18 19 20 21 22 23 24 25 26 26 25 25 25 26 26 26 26 25 25 24 24 23 23 22 21 20 21 21 21 21 21 20 19 19 19 18 17 17 16 16 16 15 14 13 12 11 11 11 11 12 13 13 14 15 16 17 18 19 19 20 20 19 19 18 17 18 20 22 23 24 25 25 25 24 23 24
9 10 10 12 13 13 13 14 14 15 15 16 16 16 17 18 19 20 21 22 23 23 24 24 24 24 25 24 24 24 24 25 24 24 23 23 23 24 24 23 22 22 21 20 20 19 18 17 16 15 14 13 12 11 10 10 10 11 12 13 14 15 16 17 18 19 20 20 20 20 19 19 19 19 20 21 23 24 25 26 26 26 25 24 24 26
8 8 8 9 10 10 11 11 11 12 12 13 13 12 13 14 14 15 16 17 19 20 20 21 22 22 22 22 22 22 22 22 22 22 22 22 21 22 22 21 21 20 19 19 18 16 15 14 13 12 11 10 10 10 10 10 11 11 13 14 15 16 17 18 19 20 20 20 20 20 20 20 20 21 22 24 25 26 27 27 26 26 26 25 26 28
6 7 8 8 8 8 8 8 9 10 10 10 10 9 10 10 10 11 11 12 14 15 15 16 17 18 18 19 19 19 19 19 20 19 19 19 19 19 18 18 18 17 16 14 13 12 11 10 10 9 9 8 9 9 10 11 11 12 14 15 16 17 18 20 20 20 20 21 21 21 21 21 22 23 24 25 26 27 27 26 26 26 26 26 28 29
7 6 6 7 7 7 7 6 7 8 8 8 8 7 7 7 7 7 7 7 9 10 11 11 12 13 14 14 14 15 15 16 16 16 16 15 15 15 15 14 14 13 12 11 10 9 9 8 8 7 7 8 8 9 10 11 12 13 14 15 17 18 18 18 18 18 20 21 21 22 22 22 23 23 24 25 26 27 27 26 26 26 26 27 28 27
8 7 5 5 6 7 6 6 6 6 7 7 7 6 6 5 4 4 5 4 5 6 7 8 8 9 10 11 11 11 11 12 12 12 12 12 12 12 11 11 10 10 9 8 7 7 6 6 6 6 6 7 8 9 11 12 13 14 15 16 17 17 17 17 18 19 21 22 22 22 22 22 23 24 25 26 27 27 26 26 27 27 26 25 25 24
9 8 6 5 4 5 6 6 6 5 5 5 6 6 5 4 3 3 3 2 3 3 4 5 5 5 6 7 8 8 8 9 9 9 9 9 9 9 8 8 7 6 6 5 4 4 4 5 6 6 7 8 10 11 12 13 14 15 16 17 18 18 18 19 20 21 21 22 22 22 22 23 24 25 26 27 26 26 26 27 27 26 24 23 23 24
9 8 8 7 6 4 4 5 5 4 5 5 6 6 5 5 3 2 2 1 1 2 3 4 4 4 4 5 5 6 6 6 6 6 6 6 6 6 5 5 4 4 4 4 4 4 5 6 7 8 9 10 11 12 13 14 15 16 17 18 19 19 20 20 21 22 22 23 23 24 24 24 25 26 26 27 27 27 27 27 25 23 22 22 23 23
10 9 9 8 8 6 5 4 3 4 5 6 7 6 6 6 5 4 4 3 2 2 3 3 4 4 5 5 5 5 5 5 5 5 5 5 5 5 5 5 4 4 4 4 4 5 6 6 7 8 9 10 12 13 14 15 16 17 18 19 20 20 21 21 22 23 23 24 24 24 25 26 26 27 27 27 27 26 25 24 23 22 22 22 22 23
13 12 11 10 9 9 8 7 6 5 6 6 7 7 7 6 6 6 6 5 4 4 3 4 4 5 5 5 5 4 4 4 4 4 5 5 5 5 5 5 5 5 5 5 5 5 6 7 8 9 10 11 13 14 15 16 17 18 19 20 21 21 22 22 23 24 25 25 25 26 26 26 27 27 26 26 24 23 23 23 22 22 22 22 23 23
16 15 14 13 12 12 11 11 9 9 8 8 8 8 8 8 7 7 7 6 5 5 5 6 6 6 6 6 6 6 6 6 6 6 6 6 6 6 6 6 6 6 6 6 6 6 6 7 8 9 10 11 12 13 15 16 16 17 18 19 19 20 20 21 22 22 23 24 24 24 24 24 24 24 23 23 22 22 23 23 22 22 23 23 24 24
19 18 16 16 15 14 14 14 13 12 11 11 9 8 9 9 9 9 9 8 7 7 7 7 7 7 7 8 8 8 8 8 9 8 8 8 8 8 8 8 7 6 6 5 5 5 5 5 6 7 9 10 12 13 14 15 16 17 18 18 18 18 19 19 19 19 20 20 21 21 22 22 22 22 22 22 22 23 23 23 24 24 25 25 25 25
22 21 19 19 18 18 17 16 16 15 14 13 12 10 9 9 9 10 10 10 9 9 9 10 10 9 9 9 9 10 10 11 11 11 11 10 10 9 8 7 7 6 5 4 3 2 3 4 6 8 9 11 12 13 14 15 16 17 18 19 20 20 20 20 20 20 20 20 20 21 21 22 22 22 22 23 23 24 24 25 25 25 25 26 25 25
25 24 23 23 22 21 21 20 18 17 16 15 14 12 10 9 9 9 10 10 10 11 11 12 11 11 10 10 10 10 11 11 11 11 10 10 9 9 8 8 7 6 5 4 3 3 5 6 8 9 11 12 13 14 15 16 16 17 18 19 19 20 21 21 21 21 21 21 21 22 22 22 22 22 23 23 24 24 25 25 25 25 25 26 25 25
24 24 25 26 25 24 24 22 20 19 18 16 15 13 11 10 9 8 9 9 10 11 11 11 11 11 10 10 10 11 11 11 10 10 9 9 10 10 9 8 8 7 6 5 5 5 7 8 9 10 12 13 13 14 15 16 17 18 18 19 19 20 20 21 21 22 22 22 23 23 23 23 23 24 24 24 25 25 25 26 26 26 26 27 27 26
25 26 27 27 26 26 26 23 21 21 20 18 16 15 13 12 10 9 9 9 9 9 10 10 10 10 9 10 10 11 11 11 10 10 10 10 11 10 9 9 8 7 7 6 7 8 9 11 11 12 13 14 14 14 14 15 16 17 18 19 20 20 21 20 20 21 21 21 22 22 23 23 23 24 24 25 25 25 26 26 27 27 28 28 28 28
30 29 28 27 26 26 26 24 22 22 21 19 18 18 16 15 13 12 11 11 11 11 11 11 11 11 11 12 12 12 12 12 11 11 11 11 10 10 10 10 10 9 9 9 10 11 13 14 16 17 17 18 18 17 15 14 14 15 17 19 20 20 21 21 21 21 21 20 21 21 22 22 23 23 23 24 24 25 25 26 27 28 29 29 30 30
Wind_Direction
324 321 318 316 314 315 316 314 313 318 318 315 316 318 318 318 313 300 289 274 252 236 228 224 221 220 219 215 212 211 210 211 212 214 215 213 212 215 216 215 215 214 214 219 225 226 226 225 224 223 224 225 224 224 227 229 228 225 233 244 246 243 241 238 241 243 247 248 235 220 227 244 247 249 251 256 264 271 274 271 270 274 283 289 293 299
327 325 325 326 325 325 323 318 317 321 324 321 317 317 318 316 312 308 299 284 263 242 229 224 221 219 218 216 212 210 209 209 209 212 213 212 211 212 215 214 214 213 212 214 220 224 226 226 224 224 224 225 224 224 226 229 229 226 234 246 245 243 241 237 236 236 241 245 234 224 235 243 246 249 249 256 265 270 270 266 265 272 280 287 293 299
331 330 332 332 333 335 333 326 322 325 330 327 319 317 319 313 311 314 306 289 270 248 232 225 222 218 217 216 212 209 208 207 207 210 212 211 210 210 213 213 213 213 213 214 217 221 225 225 224 224 224 224 223 224 226 229 231 230 234 242 243 246 247 241 237 233 237 240 234 229 235 240 243 243 248 258 265 267 265 261 262 271 280 288 294 300
335 336 336 335 335 339 338 332 326 328 332 329 320 317 319 314 312 315 308 294 278 256 236 226 221 218 216 216 212 209 207 207 206 207 209 209 208 209 210 212 212 212 213 216 217 219 224 225 225 224 224 223 222 223 226 229 231 232 236 240 243 246 247 248 244 235 235 235 230 230 236 241 241 241 249 258 263 265 260 257 261 271 281 288 294 301
338 340 341 339 336 338 340 337 332 332 334 331 321 315 318 318 308 306 306 297 284 266 243 229 223 218 215 214 212 209 206 206 205 206 207 207 206 207 208 209 208 209 213 217 218 220 223 224 224 224 223 222 222 223 225 227 227 230 236 241 245 246 245 251 249 238 235 230 226 231 238 242 242 243 251 258 262 263 256 256 262 271 281 287 293 301
339 339 340 341 337 335 337 339 339 339 340 340 330 318 320 321 306 303 307 299 287 273 247 233 226 218 215 214 211 209 206 205 204 205 205 205 205 205 205 206 205 205 210 216 217 219 220 221 221 221 222 221 221 222 224 224 224 228 234 239 243 244 245 250 250 242 236 229 225 231 240 243 243 244 250 257 261 259 255 256 262 273 281 286 292 300
338 336 335 339 338 334 333 335 339 341 343 348 342 327 326 328 319 315 317 307 291 267 241 235 229 219 215 214 212 208 206 205 204 204 204 203 204 204 203 203 202 203 208 213 216 217 218 219 220 220 221 221 220 222 223 222 222 228 233 234 239 243 244 247 251 248 239 230 226 232 241 245 246 247 251 256 258 256 255 257 264 274 280 284 291 298
337 335 333 335 337 337 335 333 334 336 339 346 349 340 337 338 332 328 326 316 289 240 220 222 230 222 215 214 212 208 205 204 204 202 202 202 202 202 201 199 200 203 208 212 215 217 218 220 221 221 221 220 220 221 223 222 222 228 233 234 236 241 245 247 251 249 241 233 229 234 241 245 246 248 250 253 257 256 255 256 264 274 278 282 289 296
336 336 335 335 336 338 338 336 337 335 334 339 349 353 352 352 347 340 335 318 279 233 208 208 229 222 214 213 212 208 204 203 203 201 200 201 200 200 199 197 198 203 208 211 214 216 219 221 222 223 223 222 222 223 223 223 224 228 234 235 232 233 240 243 244 245 242 235 233 237 238 237 241 246 247 252 256 255 253 256 265 273 277 280 287 295
339 339 338 337 337 339 339 339 341 339 334 335 344 351 356 1 1 356 347 319 297 271 210 208 226 219 212 212 211 208 203 201 202 200 198 199 197 197 197 195 196 201 205 209 212 213 215 218 220 224 226 225 226 226 223 223 226 229 232 235 232 230 233 238 241 247 246 238 238 243 237 232 238 243 246 250 253 253 253 257 264 271 275 278 285 293
341 340 340 340 338 339 337 338 345 343 336 338 345 345 346 357 7 12 11 356 338 327 227 209 214 209 206 209 211 208 202 199 200 199 196 195 194 195 196 194 195 199 203 206 210 212 213 215 218 222 225 225 226 227 222 220 224 228 230 233 233 231 232 237 244 251 247 239 239 244 241 239 241 241 244 249 252 254 254 257 263 269 274 277 284 290
343 343 344 344 341 340 338 337 344 346 339 344 354 346 336 345 356 7 18 21 18 11 271 209 203 196 195 203 209 206 200 197 198 198 196 193 192 194 195 194 196 199 201 204 209 211 213 215 217 220 222 222 224 225 222 221 223 227 229 232 235 234 233 239 250 253 247 238 236 239 241 245 243 242 249 254 255 256 254 256 261 267 273 276 282 288
349 350 350 348 346 346 344 338 342 347 341 344 357 357 343 340 344 350 1 11 17 20 33 114 177 186 185 193 201 200 196 193 194 196 194 190 191 192 192 193 197 199 200 202 207 211 213 215 216 218 221 221 223 223 221 222 225 228 230 233 238 237 235 241 253 253 244 236 234 236 241 245 243 246 256 259 258 257 254 256 262 268 272 276 283 286
355 357 355 354 353 351 348 345 346 351 347 341 348 1 360 341 337 339 340 354 9 13 29 65 106 162 174 186 193 191 189 188 188 191 189 186 189 191 191 194 197 198 199 199 204 211 214 216 218 219 220 220 223 225 225 226 228 231 233 236 240 236 234 246 253 245 236 232 232 236 242 245 244 251 259 262 262 258 254 258 264 270 273 278 283 283
358 0 359 357 356 355 353 352 350 351 355 346 341 357 7 351 341 337 330 344 7 15 11 79 66 142 170 183 188 185 183 183 184 187 188 187 188 190 191 194 196 196 198 198 201 209 213 216 219 221 222 223 225 227 229 230 232 234 236 240 240 231 235 250 245 231 226 227 233 239 244 245 246 254 261 264 262 255 254 259 264 269 273 278 281 279
0 0 359 356 355 354 354 354 352 349 353 351 342 347 359 1 5 350 332 348 10 29 143 195 161 155 172 178 183 182 180 181 182 184 187 187 188 193 195 193 192 192 195 198 201 208 212 215 218 222 225 226 227 229 231 231 232 234 236 241 239 229 238 247 233 224 225 229 235 239 243 245 247 254 259 260 257 253 254 258 262 266 273 276 275 276
5 2 360 357 354 353 353 353 352 348 348 349 343 335 338 356 3 357 348 359 20 44 73 152 175 170 175 175 180 181 177 179 181 181 184 184 184 194 197 193 191 191 192 196 202 207 211 213 217 222 225 227 228 229 229 229 230 231 234 238 233 226 239 242 230 227 230 232 236 239 244 250 252 254 257 256 255 253 253 255 260 267 272 272 270 274
7 4 2 1 359 357 357 355 353 348 343 339 335 329 326 333 344 351 355 1 20 58 71 97 125 175 188 185 181 180 177 177 179 179 183 183 181 191 195 192 193 194 193 197 202 206 209 213 217 221 224 226 227 228 229 228 228 230 232 233 227 226 236 234 227 228 229 231 238 244 251 254 254 253 253 252 251 250 250 254 262 270 270 266 266 274
9 7 5 6 6 3 2 1 359 352 342 333 330 334 340 333 326 333 342 352 10 109 111 131 99 150 195 194 183 178 176 176 178 180 184 184 182 191 197 194 195 197 198 200 204 207 211 215 220 223 225 226 226 227 229 227 227 229 230 228 225 228 230 225 223 225 225 229 240 248 255 256 255 252 247 246 245 245 251 258 267 270 265 261 267 277
11 10 9 10 11 9 7 7 4 360 350 342 339 341 354 359 333 321 334 339 314 279 250 218 217 178 186 193 184 178 175 176 178 178 181 183 183 190 199 198 197 197 199 201 205 209 214 218 223 226 227 227 227 227 225 222 223 226 226 223 223 226 226 223 223 224 224 231 242 249 254 254 252 247 242 243 244 248 258 265 270 267 260 261 271 282
14 13 13 13 13 12 11 12 10 6 358 352 352 352 350 347 330 319 345 351 330 311 299 228 214 192 173 187 185 179 175 175 177 178 182 186 185 189 196 198 198 198 198 201 206 210 215 221 226 229 229 229 229 228 224 220 220 221 222 220 218 220 225 226 226 223 226 239 249 251 251 249 246 244 245 251 253 257 263 267 268 264 260 267 277 286
16 16 16 16 16 15 14 15 14 11 4 358 0 4 360 360 348 325 321 344 354 359 324 189 185 185 178 179 184 181 176 174 176 179 184 186 185 192 198 197 197 199 200 203 208 212 217 223 228 231 230 228 228 227 224 220 219 218 219 219 218 219 224 227 225 224 231 242 249 251 251 249 245 245 251 257 258 259 263 264 263 260 263 272 280 286
19 19 19 17 17 16 15 15 14 13 10 4 3 6 6 20 29 4 340 345 360 12 163 154 154 174 182 180 182 181 178 175 175 177 180 178 181 191 198 198 197 199 202 206 210 213 219 225 228 229 227 225 224 224 221 218 217 217 216 220 224 225 225 221 220 225 232 241 248 251 252 252 248 247 252 257 258 260 263 263 262 262 267 275 281 287
21 23 24 23 22 20 17 15 13 12 11 8 9 12 9 10 20 29 36 39 56 104 135 148 151 165 180 180 177 181 182 177 173 171 169 169 176 185 193 198 199 200 203 207 210 213 219 225 228 229 227 222 221 222 220 216 215 216 216 219 224 227 225 220 218 225 233 242 251 254 256 255 252 251 253 256 260 263 265 264 262 264 269 275 282 288
19 22 25 26 28 28 26 23 20 17 12 11 18 22 19 20 25 42 64 75 95 102 110 133 144 155 173 175 171 181 186 181 173 165 158 163 173 180 188 197 200 202 205 207 211 216 221 226 228 228 227 222 218 219 218 215 214 215 216 219 222 225 226 226 227 232 238 246 252 253 255 254 252 252 253 257 262 265 266 263 261 265 270 277 284 291
19 19 22 24 26 28 29 27 26 25 22 20 27 30 27 30 39 53 65 84 102 98 98 113 126 138 156 163 165 178 187 184 177 163 152 158 167 172 179 189 196 202 207 210 216 221 225 228 230 230 228 223 218 217 216 213 213 215 217 221 224 225 226 227 231 237 240 244 246 247 249 249 249 252 255 261 264 264 263 260 261 268 275 281 287 292
20 19 21 23 25 26 28 28 27 28 31 33 34 35 34 37 47 62 68 80 97 98 102 111 116 126 138 145 154 171 183 183 175 160 154 159 165 172 180 186 191 197 203 208 215 220 224 227 228 228 226 222 219 217 213 211 211 212 216 222 226 226 225 226 229 234 234 234 238 240 242 245 248 254 260 263 263 262 260 259 265 273 278 283 288 293
22 21 21 23 26 26 28 31 30 30 34 41 43 40 39 41 50 62 67 71 82 87 102 117 121 126 132 137 149 168 177 177 172 166 165 167 173 180 185 187 188 194 201 207 212 214 219 222 223 223 221 219 217 214 211 209 209 211 216 223 226 226 226 227 227 230 230 230 233 236 239 244 251 258 261 261 261 260 260 263 269 275 279 283 288 293
22 22 22 23 26 28 28 30 33 33 34 40 47 49 48 48 52 59 61 63 69 74 85 109 127 132 135 139 148 160 170 175 178 180 178 181 185 186 185 185 190 199 206 208 209 210 214 217 219 221 219 218 216 212 212 210 210 214 221 224 225 224 224 225 224 226 228 230 233 236 241 248 254 258 258 259 261 264 266 269 272 276 279 284 288 292
21 23 24 24 27 29 29 30 33 36 37 38 43 50 56 59 59 60 61 61 65 73 82 99 123 136 143 149 154 161 170 178 184 186 187 190 189 185 185 188 195 202 206 208 208 209 212 214 215 217 217 217 215 214 215 215 216 222 224 221 220 218 216 216 221 225 228 232 236 240 246 252 255 257 258 262 267 268 269 272 275 277 280 284 287 291
17 21 25 27 28 30 31 31 33 36 39 41 41 45 53 62 67 70 74 76 78 86 95 102 114 128 139 151 162 170 178 184 189 192 195 194 190 189 191 194 197 201 206 212 209 202 200 201 201 203 205 207 209 210 213 215 216 217 214 210 209 206 201 207 218 224 229 235 240 245 250 254 256 260 263 266 267 267 269 273 275 277 280 283 287 291
11 17 22 26 28 30 32 33 33 35 39 43 44 44 48 56 64 69 75 81 88 99 114 120 124 132 139 148 161 171 178 184 188 191 192 191 190 191 194 198 201 204 207 209 202 192 191 192 191 191 192 193 194 195 195 194 191 188 186 187 189 189 195 209 219 225 232 238 244 249 254 257 261 263 263 263 264 267 271 274 275 277 279 282 286 291
7 9 16 22 24 27 33 36 36 36 38 41 45 47 49 53 59 65 69 73 77 83 94 105 116 128 135 142 150 160 170 177 183 185 187 189 192 198 203 205 204 202 201 199 194 187 183 182 182 182 180 176 174 173 173 170 167 168 170 174 180 191 203 213 221 229 236 243 248 253 256 258 260 261 262 264 267 270 272 273 275 278 280 283 288 293
5 3 7 14 18 21 27 34 38 39 39 41 44 47 49 53 58 63 68 71 75 80 85 90 97 103 109 116 123 132 145 157 168 178 184 187 188 190 191 183 172 171 174 171 167 165 161 158 160 161 162 161 160 161 162 161 162 168 173 181 192 203 213 221 229 236 242 247 251 254 257 259 261 264 267 271 272 273 273 275 276 278 280 284 288 292
4 1 1 5 11 14 19 26 33 37 40 42 45 46 48 52 56 61 67 72 77 82 86 89 92 95 98 101 104 109 116 122 132 145 152 154 151 145 138 134 134 137 140 140 142 145 145 146 150 153 157 160 160 160 164 167 173 182 191 201 210 218 226 233 238 243 248 251 254 257 259 262 264 268 272 275 275 275 276 276 276 276 279 284 288 292
358 360 359 1 4 7 11 17 26 34 39 42 44 46 49 51 54 57 63 68 73 78 84 88 92 95 97 98 100 102 106 109 114 120 123 124 125 124 124 128 132 135 137 138 141 142 143 147 152 156 160 163 165 170 178 186 195 204 213 220 226 232 237 242 246 250 253 255 258 261 264 267 271 276 278 277 275 274 274 274 276 280 284 288 290 294
348 353 356 358 358 0 5 8 15 27 36 39 42 46 48 49 52 56 60 65 69 72 77 83 88 94 98 100 102 103 105 108 111 115 118 121 124 128 133 137 139 140 141 143 144 146 149 152 155 159 164 170 178 187 197 206 214 223 230 235 241 244 248 251 254 256 259 262 266 270 273 276 278 278 275 273 272 272 273 276 280 284 287 288 290 292
330 343 350 353 352 352 358 2 6 16 27 33 36 43 49 49 52 55 57 65 73 75 77 80 84 89 94 99 103 106 109 111 113 117 121 125 129 133 134 136 137 138 138 139 142 145 149 153 158 165 174 184 195 204 213 222 229 235 240 244 248 252 254 257 260 264 269 271 274 276 277 276 274 272 270 271 272 273 276 280 283 284 286 288 289 289
306 323 338 349 351 350 352 356 358 4 13 22 26 32 39 45 57 61 57 63 75 80 84 87 89 92 94 98 103 108 113 116 118 121 124 128 130 129 128 128 128 128 130 133 139 144 151 159 167 178 190 200 211 220 227 234 238 243 248 251 254 258 263 268 272 275 275 274 274 274 274 273 271 270 271 271 273 275 279 282 283 285 287 288 287 285
292 300 313 332 344 347 348 351 354 352 353 2 8 13 18 25 39 53 62 78 87 85 89 93 98 104 107 110 114 118 120 122 124 125 127 128 127 126 125 126 128 131 135 139 145 153 163 174 185 199 212 221 229 235 240 245 250 255 260 262 265 270 274 276 276 274 273 273 274 274 274 273 271 270 270 272 274 278 280 282 283 285 285 284 282 281
279 285 288 297 313 331 338 343 348 348 343 343 345 347 353 359 7 18 38 83 107 111 114 116 118 122 125 127 128 129 131 131 130 129 127 126 125 124 125 127 131 138 144 152 165 180 196 210 223 231 238 243 247 251 254 257 260 263 265 267 269 271 271 270 269 269 269 270 271 271 270 269 268 268 270 272 275 277 278 279 281 282 280 278 278 280
267 272 275 279 281 291 313 328 337 337 329 326 329 331 329 323 314 314 325 337 136 149 155 156 156 159 159 156 151 148 148 144 140 138 136 134 132 133 136 141 149 160 171 186 201 214 227 236 241 245 249 253 255 258 260 262 263 265 266 267 268 267 267 267 268 268 268 268 268 269 268 267 268 268 270 272 274 275 277 278 279 278 277 279 280 282
264 266 269 271 272 270 273 285 300 311 313 314 316 316 314 309 297 283 278 267 227 198 187 179 177 179 180 178 174 168 164 159 152 149 147 146 146 148 153 157 165 173 184 198 211 222 232 239 245 250 253 256 259 260 262 262 263 264 264 264 265 265 266 267 267 267 268 268 268 268 268 268 269 269 270 272 273 274 275 276 277 278 280 281 281 282
262 264 265 266 268 267 264 261 267 278 287 296 301 300 298 296 289 280 274 263 245 232 219 206 198 194 189 186 182 178 174 171 166 162 160 159 159 163 167 171 177 186 196 207 218 228 237 244 250 254 257 259 260 260 260 260 260 260 261 261 261 261 262 262 263 264 265 266 266 267 267 268 268 269 270 270 271 272 274 275 278 279 280 279 280 281
259 262 265 267 268 267 265 264 265 270 276 280 286 289 288 284 278 275 271 264 258 251 238 226 216 206 197 191 186 184 183 183 183 181 180 181 181 183 185 186 189 194 199 207 216 224 234 242 248 253 256 259 260 261 262 262 263 263 263 263 262 262 262 262 262 263 263 265 266 267 268 268 268 269 270 272 273 275 276 277 279 278 278 279 279 280
260 262 264 267 268 267 267 267 268 270 275 280 281 280 279 278 275 272 268 262 258 253 247 239 229 216 206 199 195 195 195 195 195 195 193 191 189 187 186 185 184 185 189 195 204 215 230 245 255 260 263 263 264 264 265 265 266 267 267 268 268 268 268 268 267 267 266 266 267 268 268 269 270 271 273 275 276 277 277 278 278 278 279 280 281 281
260 261 263 265 267 267 266 266 268 272 276 281 281 276 269 268 269 269 267 262 254 247 245 242 235 225 218 214 209 205 201 197 193 190 186 184 182 179 176 173 171 173 177 182 197 229 260 275 279 281 281 280 279 277 275 273 270 269 268 269 270 270 271 270 270 270 269 269 269 269 270 271 273 274 275 275 276 277 277 278 279 280 281 281 281 281
259 261 263 263 263 264 264 263 265 269 273 278 277 271 262 257 257 259 260 257 250 243 240 238 236 232 228 222 212 203 197 191 186 184 183 182 179 176 174 173 175 179 184 195 219 251 271 279 282 282 283 283 282 281 281 280 278 276 273 270 268 268 269 269 269 269 269 268 269 269 270 272 273 275 276 277 278 279 280 281 281 282 282 282 281 282
261 263 262 260 259 260 261 261 263 266 269 269 265 257 249 247 247 245 246 246 243 241 239 237 236 235 227 215 204 196 193 191 189 189 190 188 184 182 184 187 191 195 203 216 239 261 274 279 282 283 283 282 280 277 277 277 278 278 277 276 273 270 269 268 268 268 268 269 269 270 271 273 274 275 276 278 279 280 281 282 283 283 284 284 284 284
262 261 259 258 258 259 260 260 261 262 262 259 253 244 234 232 232 227 226 230 230 231 233 233 231 227 219 210 204 199 196 197 200 202 199 195 195 198 203 205 207 214 226 240 257 271 279 284 286 288 289 289 288 285 281 278 278 278 279 279 278 277 276 274 272 271 271 271 272 273 273 274 275 276 277 278 279 281 282 282 283 284 284 285 286 287
258 257 258 258 259 259 259 257 256 257 256 253 249 241 231 224 222 218 213 214 216 219 221 222 222 220 217 214 210 207 207 209 212 212 210 209 213 218 218 218 221 228 239 251 264 275 282 287 291 294 296 297 296 295 291 286 283 282 280 278 278 278 278 278 278 277 276 276 276 276 277 277 277 278 279 280 281 283 284 285 285 286 286 286 287 288
Height
5694 5689 5685 5682 5677 5673 5669 5665 5662 5658 5653 5650 5646 5640 5636 5632 5629 5626 5623 5621 5619 5618 5623 5630 5638 5646 5655 5668 5679 5686 5693 5702 5710 5717 5724 5732 5738 5744 5749 5755 5760 5765 5771 5774 5776 5780 5783 5786 5789 5793 5796 5799 5802 5806 5809 5810 5811 5814 5815 5817 5818 5820 5821 5822 5824 5825 5826 5826 5826 5827 5829 5830 5830 5831 5832 5832 5833 5833 5834 5834 5834 5834 5834 5834 5834 5834
5691 5686 5682 5678 5674 5670 5666 5662 5658 5654 5650 5646 5641 5636 5633 5628 5625 5622 5618 5616 5613 5612 5617 5623 5628 5637 5647 5659 5669 5678 5686 5696 5705 5713 5719 5727 5734 5740 5745 5750 5755 5761 5766 5770 5773 5777 5780 5783 5786 5790 5793 5796 5799 5803 5805 5806 5809 5811 5813 5815 5816 5817 5818 5820 5821 5822 5823 5824 5825 5825 5827 5828 5828 5829 5829 5830 5831 5831 5832 5832 5832 5832 5833 5833 5833 5832
5688 5683 5679 5675 5670 5666 5662 5658 5654 5650 5646 5642 5637 5633 5630 5626 5621 5618 5615 5611 5608 5606 5611 5617 5621 5630 5639 5649 5661 5672 5682 5691 5700 5707 5713 5722 5729 5735 5741 5746 5752 5758 5762 5766 5770 5774 5777 5780 5783 5787 5790 5793 5796 5799 5801 5804 5807 5809 5810 5813 5814 5814 5816 5817 5819 5820 5821 5822 5823 5823 5824 5825 5826 5827 5828 5828 5829 5829 5830 5830 5830 5831 5831 5831 5831 5830
5686 5681 5677 5673 5668 5664 5660 5656 5651 5648 5643 5639 5635 5631 5628 5624 5619 5616 5612 5607 5605 5604 5607 5612 5615 5622 5630 5640 5654 5666 5676 5684 5692 5700 5707 5716 5724 5730 5736 5742 5749 5755 5760 5763 5767 5771 5774 5777 5781 5784 5787 5790 5792 5795 5798 5802 5805 5807 5808 5810 5811 5812 5814 5815 5816 5817 5818 5819 5820 5821 5822 5823 5824 5825 5826 5826 5826 5827 5827 5828 5828 5829 5829 5829 5829 5828
5684 5679 5675 5671 5666 5662 5658 5654 5650 5646 5642 5637 5633 5629 5627 5624 5618 5614 5610 5605 5603 5602 5605 5608 5609 5615 5624 5633 5646 5659 5668 5676 5685 5693 5700 5709 5718 5725 5731 5739 5746 5752 5757 5761 5765 5768 5772 5775 5778 5781 5784 5787 5790 5793 5795 5799 5802 5804 5805 5807 5808 5809 5811 5812 5814 5815 5816 5817 5818 5819 5820 5821 5822 5823 5823 5824 5824 5825 5825 5826 5826 5827 5827 5827 5827 5826
5683 5678 5674 5670 5665 5661 5657 5653 5649 5645 5641 5636 5632 5629 5626 5623 5618 5613 5608 5603 5601 5601 5603 5604 5605 5612 5621 5628 5639 5651 5661 5670 5679 5687 5695 5704 5712 5719 5728 5735 5742 5748 5753 5757 5761 5764 5768 5771 5774 5777 5781 5784 5787 5790 5792 5795 5799 5800 5802 5804 5805 5807 5809 5810 5812 5813 5814 5815 5816 5816 5818 5819 5820 5821 5821 5822 5822 5823 5823 5824 5824 5825 5825 5825 5825 5824
5681 5676 5672 5668 5664 5661 5657 5653 5648 5644 5641 5636 5632 5629 5625 5620 5616 5612 5607 5603 5601 5601 5601 5601 5604 5611 5617 5623 5633 5645 5657 5667 5675 5682 5690 5699 5707 5716 5724 5732 5738 5744 5748 5752 5756 5760 5764 5768 5771 5775 5778 5781 5784 5787 5789 5792 5795 5797 5799 5801 5802 5804 5806 5808 5809 5811 5811 5813 5814 5815 5816 5817 5817 5818 5819 5819 5820 5820 5821 5822 5822 5823 5823 5823 5823 5823
5679 5675 5671 5667 5663 5659 5656 5652 5648 5644 5640 5636 5632 5628 5624 5618 5614 5611 5608 5605 5602 5601 5600 5601 5604 5608 5613 5620 5629 5640 5651 5661 5669 5677 5686 5695 5704 5713 5721 5728 5735 5740 5745 5749 5753 5758 5762 5765 5769 5772 5775 5778 5781 5783 5785 5790 5793 5795 5796 5798 5800 5802 5804 5805 5807 5808 5809 5810 5812 5812 5813 5814 5815 5816 5816 5817 5818 5818 5819 5820 5820 5820 5821 5821 5821 5821
5677 5673 5669 5665 5661 5657 5654 5650 5647 5643 5640 5636 5632 5627 5623 5618 5614 5611 5609 5607 5604 5602 5601 5602 5604 5606 5612 5618 5625 5635 5645 5655 5665 5674 5684 5693 5702 5710 5718 5724 5731 5737 5741 5746 5751 5755 5759 5763 5766 5769 5772 5775 5778 5780 5784 5788 5791 5793 5794 5796 5798 5800 5802 5803 5805 5806 5807 5808 5810 5810 5811 5811 5812 5813 5814 5815 5816 5816 5817 5817 5818 5818 5818 5819 5819 5819
5675 5671 5667 5663 5659 5655 5652 5649 5646 5643 5640 5636 5632 5628 5624 5620 5616 5612 5610 5608 5606 5604 5604 5605 5605 5608 5613 5618 5623 5631 5640 5652 5664 5673 5682 5691 5700 5708 5714 5720 5727 5733 5738 5743 5748 5752 5756 5760 5764 5767 5770 5773 5776 5779 5783 5786 5788 5790 5791 5793 5795 5797 5800 5801 5802 5804 5805 5806 5808 5808 5808 5809 5809 5811 5812 5813 5813 5813 5814 5815 5816 5816 5816 5817 5817 5817
5675 5670 5666 5662 5658 5654 5651 5648 5645 5643 5640 5636 5632 5629 5625 5622 5618 5616 5613 5610 5609 5607 5607 5606 5607 5609 5613 5618 5623 5631 5642 5654 5664 5672 5680 5688 5696 5704 5710 5718 5724 5730 5735 5741 5746 5750 5753 5757 5761 5764 5767 5771 5774 5777 5780 5783 5785 5786 5787 5791 5793 5795 5797 5799 5800 5801 5802 5804 5805 5806 5807 5807 5808 5809 5810 5810 5811 5811 5812 5813 5813 5814 5814 5815 5815 5814
5675 5670 5666 5661 5657 5654 5651 5648 5645 5643 5640 5637 5633 5630 5627 5624 5621 5619 5617 5614 5612 5611 5609 5608 5609 5611 5614 5619 5625 5633 5644 5654 5662 5672 5679 5686 5694 5701 5708 5716 5722 5727 5733 5739 5743 5747 5751 5755 5759 5762 5764 5768 5771 5774 5777 5780 5781 5783 5785 5788 5791 5793 5795 5796 5797 5799 5800 5801 5803 5804 5805 5805 5806 5807 5808 5808 5809 5809 5810 5811 5811 5812 5813 5813 5812 5812
5675 5671 5666 5662 5657 5654 5651 5648 5645 5643 5640 5638 5634 5631 5629 5626 5623 5621 5620 5618 5617 5615 5613 5612 5612 5614 5617 5621 5626 5633 5643 5652 5662 5672 5681 5688 5695 5700 5707 5714 5719 5725 5731 5736 5741 5745 5749 5753 5757 5760 5763 5767 5769 5771 5774 5776 5778 5781 5783 5787 5789 5791 5792 5794 5795 5797 5798 5799 5800 5802 5803 5803 5804 5806 5807 5807 5807 5807 5808 5809 5809 5810 5811 5810 5810 5809
5676 5672 5667 5662 5658 5654 5651 5648 5646 5643 5640 5638 5636 5633 5630 5627 5625 5624 5623 5622 5621 5620 5618 5617 5617 5619 5621 5624 5627 5633 5641 5651 5661 5670 5678 5686 5692 5698 5705 5713 5718 5724 5729 5734 5739 5743 5747 5751 5754 5758 5761 5764 5766 5768 5771 5774 5777 5780 5782 5785 5787 5789 5791 5792 5793 5794 5795 5796 5798 5800 5801 5801 5802 5804 5805 5805 5805 5806 5807 5807 5808 5808 5809 5808 5807 5807
5674 5671 5667 5663 5659 5655 5651 5648 5646 5643 5641 5639 5637 5635 5631 5629 5629 5628 5627 5625 5625 5623 5622 5621 5622 5623 5625 5627 5629 5633 5640 5649 5658 5667 5675 5682 5689 5696 5704 5711 5719 5725 5729 5733 5737 5741 5745 5748 5752 5755 5758 5761 5764 5767 5770 5773 5776 5778 5781 5783 5785 5786 5788 5789 5789 5791 5792 5794 5796 5798 5799 5799 5800 5801 5802 5803 5803 5804 5805 5805 5806 5806 5806 5806 5805 5805
5676 5671 5667 5663 5659 5655 5652 5649 5646 5644 5641 5640 5638 5636 5634 5632 5631 5631 5629 5628 5627 5626 5625 5625 5625 5627 5628 5630 5632 5635 5641 5649 5657 5666 5675 5683 5692 5697 5702 5710 5717 5723 5728 5732 5736 5738 5742 5745 5749 5752 5755 5759 5762 5766 5769 5772 5774 5776 5778 5780 5782 5784 5786 5786 5787 5788 5790 5792 5794 5796 5797 5798 5798 5799 5800 5800 5801 5802 5803 5803 5804 5804 5804 5803 5803 5803
5678 5673 5669 5664 5660 5656 5652 5650 5647 5644 5642 5640 5639 5637 5636 5635 5633 5632 5631 5630 5630 5629 5628 5628 5629 5630 5631 5633 5635 5638 5643 5650 5658 5666 5675 5685 5693 5697 5702 5709 5715 5719 5724 5729 5732 5735 5739 5743 5746 5750 5753 5757 5761 5764 5767 5769 5771 5773 5776 5778 5779 5781 5783 5784 5785 5787 5788 5790 5792 5793 5794 5795 5796 5797 5797 5798 5799 5800 5801 5801 5801 5802 5801 5801 5801 5801
5679 5675 5670 5666 5661 5656 5653 5650 5647 5645 5643 5641 5639 5638 5638 5637 5635 5634 5633 5632 5632 5631 5631 5631 5632 5633 5634 5635 5637 5640 5645 5651 5659 5667 5675 5684 5690 5695 5701 5709 5714 5718 5722 5726 5729 5733 5737 5741 5744 5748 5752 5756 5759 5761 5763 5766 5769 5771 5773 5775 5777 5779 5781 5782 5783 5785 5787 5788 5789 5791 5792 5793 5794 5794 5795 5796 5797 5798 5799 5799 5799 5799 5799 5799 5799 5799
5681 5676 5672 5667 5662 5658 5654 5651 5648 5646 5644 5642 5640 5639 5638 5638 5637 5635 5634 5634 5634 5634 5634 5634 5634 5635 5636 5637 5638 5641 5647 5654 5661 5668 5676 5684 5690 5695 5701 5708 5713 5717 5721 5725 5729 5733 5737 5740 5744 5747 5751 5754 5757 5759 5762 5764 5767 5769 5771 5773 5775 5777 5778 5780 5782 5783 5785 5786 5787 5789 5790 5791 5791 5792 5793 5794 5796 5797 5797 5797 5797 5797 5797 5797 5797 5797
5683 5678 5673 5668 5664 5660 5656 5653 5650 5648 5645 5643 5641 5640 5639 5638 5638 5637 5636 5636 5635 5635 5636 5636 5636 5637 5638 5640 5641 5644 5649 5656 5664 5671 5678 5686 5691 5695 5701 5708 5713 5717 5721 5726 5730 5734 5737 5739 5742 5745 5749 5752 5754 5757 5760 5763 5766 5768 5770 5771 5773 5775 5777 5779 5780 5781 5783 5784 5786 5787 5788 5789 5790 5790 5792 5793 5794 5795 5795 5795 5795 5796 5795 5795 5795 5795
5686 5681 5676 5671 5667 5663 5659 5655 5653 5650 5647 5645 5643 5642 5641 5639 5638 5638 5637 5637 5637 5637 5637 5637 5638 5639 5640 5642 5644 5647 5652 5658 5666 5673 5681 5687 5691 5695 5701 5708 5713 5717 5721 5725 5729 5732 5735 5738 5741 5744 5748 5751 5753 5756 5759 5762 5764 5766 5768 5770 5772 5774 5776 5777 5778 5779 5781 5783 5785 5786 5787 5788 5789 5790 5791 5791 5792 5792 5793 5793 5793 5793 5793 5793 5792 5792
5689 5684 5679 5674 5670 5665 5661 5658 5655 5652 5649 5647 5645 5643 5642 5641 5640 5639 5639 5638 5639 5639 5639 5638 5639 5641 5642 5644 5647 5651 5655 5660 5668 5675 5682 5688 5691 5695 5702 5708 5713 5718 5721 5725 5728 5731 5735 5738 5740 5743 5746 5749 5752 5755 5758 5760 5762 5764 5766 5768 5770 5772 5774 5775 5777 5778 5780 5782 5783 5784 5785 5786 5787 5788 5789 5789 5790 5790 5790 5791 5791 5791 5791 5790 5790 5790
5692 5687 5682 5677 5672 5668 5664 5660 5657 5655 5652 5649 5647 5645 5644 5642 5641 5640 5640 5640 5641 5640 5640 5640 5640 5642 5644 5645 5648 5653 5658 5663 5670 5677 5682 5687 5691 5697 5703 5708 5713 5718 5722 5725 5728 5732 5735 5738 5740 5742 5745 5748 5751 5754 5756 5759 5761 5763 5765 5767 5769 5771 5772 5773 5775 5777 5779 5780 5781 5782 5783 5784 5785 5786 5787 5787 5787 5788 5788 5788 5788 5789 5789 5788 5788 5788
5695 5691 5687 5683 5678 5672 5667 5663 5660 5657 5654 5651 5649 5647 5645 5644 5643 5642 5642 5642 5642 5642 5641 5641 5642 5643 5645 5646 5649 5655 5660 5666 5673 5679 5682 5687 5692 5698 5704 5709 5714 5719 5722 5726 5729 5732 5735 5737 5739 5742 5745 5747 5750 5753 5755 5757 5759 5761 5763 5765 5767 5769 5770 5772 5774 5775 5777 5778 5779 5780 5781 5782 5783 5784 5784 5785 5785 5786 5786 5786 5786 5787 5787 5787 5787 5786
5696 5693 5690 5687 5683 5678 5673 5668 5664 5660 5657 5654 5651 5649 5647 5645 5644 5644 5644 5644 5644 5644 5643 5644 5644 5644 5646 5648 5651 5656 5662 5668 5675 5679 5683 5688 5694 5699 5704 5710 5715 5719 5723 5726 5729 5732 5734 5736 5739 5741 5743 5746 5748 5751 5753 5755 5757 5759 5761 5763 5766 5768 5769 5770 5772 5773 5775 5776 5777 5778 5779 5780 5781 5782 5782 5783 5783 5783 5784 5784 5785 5785 5785 5785 5784 5784
5698 5695 5692 5688 5684 5680 5675 5671 5667 5664 5660 5657 5655 5652 5650 5648 5646 5646 5646 5646 5646 5646 5646 5647 5647 5648 5649 5650 5653 5657 5664 5671 5677 5681 5686 5691 5696 5701 5706 5711 5716 5720 5723 5726 5729 5731 5733 5735 5737 5739 5742 5744 5746 5748 5751 5753 5755 5757 5760 5761 5763 5765 5767 5768 5770 5771 5773 5774 5776 5776 5777 5778 5779 5779 5780 5780 5781 5781 5782 5782 5783 5783 5783 5783 5782 5782
5701 5698 5695 5691 5687 5683 5679 5675 5671 5668 5665 5662 5659 5657 5654 5652 5650 5649 5649 5649 5649 5650 5650 5651 5651 5652 5653 5655 5658 5662 5667 5674 5680 5684 5689 5694 5699 5703 5708 5712 5716 5720 5723 5726 5728 5730 5732 5734 5736 5738 5740 5742 5744 5747 5749 5751 5753 5756 5758 5760 5761 5763 5764 5766 5768 5770 5771 5772 5774 5774 5775 5776 5777 5778 5778 5778 5779 5779 5780 5780 5781 5781 5781 5780 5780 5779
5705 5702 5698 5695 5692 5689 5685 5681 5677 5674 5670 5667 5664 5661 5659 5656 5655 5654 5653 5653 5653 5653 5654 5655 5656 5657 5659 5660 5663 5667 5673 5679 5684 5688 5692 5696 5700 5704 5708 5712 5716 5719 5722 5725 5726 5728 5730 5732 5734 5736 5738 5740 5742 5745 5747 5749 5751 5753 5756 5758 5758 5760 5762 5764 5766 5768 5769 5771 5772 5773 5773 5774 5775 5776 5776 5776 5777 5777 5778 5778 5778 5778 5778 5778 5777 5777
5708 5705 5702 5699 5696 5693 5690 5686 5683 5679 5676 5672 5669 5666 5664 5661 5659 5658 5658 5657 5657 5657 5658 5659 5660 5662 5664 5666 5669 5674 5679 5684 5688 5691 5694 5697 5701 5704 5708 5712 5715 5718 5721 5723 5725 5726 5728 5730 5732 5734 5736 5738 5741 5743 5745 5747 5749 5752 5754 5755 5756 5758 5760 5762 5765 5766 5768 5769 5770 5771 5771 5773 5773 5774 5774 5774 5775 5775 5776 5776 5776 5776 5776 5775 5775 5775
5710 5708 5705 5703 5700 5697 5694 5691 5688 5685 5681 5678 5675 5671 5669 5666 5664 5663 5663 5662 5661 5662 5662 5663 5664 5666 5669 5672 5675 5679 5683 5686 5689 5692 5695 5698 5701 5704 5708 5711 5714 5716 5719 5721 5723 5725 5727 5729 5731 5733 5735 5737 5740 5742 5744 5746 5748 5750 5751 5752 5754 5756 5758 5761 5763 5765 5767 5768 5768 5769 5770 5771 5771 5771 5772 5772 5773 5773 5773 5773 5774 5773 5773 5773 5773 5773
5713 5711 5708 5706 5704 5701 5698 5696 5692 5690 5687 5684 5681 5677 5674 5671 5669 5669 5668 5667 5667 5666 5667 5668 5669 5670 5673 5676 5679 5682 5685 5688 5691 5694 5696 5699 5702 5705 5708 5711 5713 5715 5718 5720 5722 5724 5726 5728 5730 5732 5734 5736 5738 5741 5742 5744 5746 5747 5748 5750 5752 5755 5757 5760 5762 5764 5765 5766 5766 5767 5768 5768 5768 5769 5769 5770 5770 5771 5771 5771 5771 5771 5771 5771 5771 5770
5714 5713 5710 5708 5706 5705 5702 5699 5697 5694 5692 5690 5687 5684 5681 5678 5676 5674 5674 5673 5672 5672 5671 5672 5673 5675 5676 5679 5681 5684 5687 5690 5692 5695 5697 5700 5703 5706 5708 5710 5712 5715 5717 5720 5722 5724 5726 5728 5730 5732 5734 5735 5737 5739 5740 5742 5744 5746 5747 5749 5751 5753 5756 5758 5760 5762 5763 5763 5764 5765 5765 5765 5766 5767 5767 5768 5768 5768 5768 5768 5768 5768 5768 5768 5768 5768
5715 5714 5712 5710 5709 5707 5705 5703 5701 5699 5697 5695 5693 5691 5688 5685 5683 5681 5679 5679 5678 5677 5676 5677 5677 5678 5680 5681 5683 5685 5687 5691 5693 5696 5699 5702 5704 5707 5708 5710 5712 5715 5717 5720 5722 5724 5726 5728 5730 5732 5734 5735 5736 5737 5739 5741 5743 5745 5747 5748 5750 5753 5755 5757 5758 5759 5760 5761 5761 5762 5762 5763 5764 5764 5765 5766 5766 5766 5766 5766 5766 5766 5765 5765 5765 5765
5716 5715 5714 5712 5710 5709 5708 5706 5704 5702 5700 5699 5697 5696 5694 5692 5690 5688 5686 5685 5685 5684 5683 5683 5683 5684 5684 5685 5686 5688 5690 5692 5695 5698 5700 5703 5705 5707 5708 5710 5713 5715 5717 5719 5722 5724 5726 5728 5730 5732 5734 5735 5736 5738 5739 5740 5742 5744 5746 5748 5750 5752 5754 5755 5756 5757 5757 5758 5759 5759 5760 5761 5761 5762 5763 5763 5764 5764 5763 5763 5763 5763 5763 5763 5763 5763
5716 5716 5715 5713 5712 5711 5709 5708 5706 5705 5703 5702 5701 5699 5698 5697 5696 5694 5693 5692 5692 5691 5690 5690 5690 5690 5690 5690 5691 5692 5694 5696 5698 5700 5703 5705 5706 5707 5709 5711 5713 5716 5718 5720 5723 5725 5727 5729 5730 5732 5734 5735 5736 5738 5739 5741 5742 5744 5746 5748 5749 5751 5752 5753 5754 5755 5755 5756 5757 5757 5758 5758 5759 5760 5761 5761 5761 5761 5761 5760 5760 5760 5760 5761 5761 5760
5716 5716 5715 5714 5713 5712 5711 5709 5708 5707 5706 5705 5704 5703 5702 5701 5700 5699 5698 5697 5696 5696 5696 5696 5696 5696 5696 5696 5697 5697 5698 5700 5701 5703 5705 5706 5708 5709 5711 5713 5716 5718 5720 5722 5724 5726 5727 5729 5730 5732 5733 5735 5736 5738 5739 5741 5742 5744 5746 5747 5748 5750 5751 5751 5752 5753 5753 5754 5754 5755 5756 5756 5757 5758 5758 5758 5758 5758 5757 5757 5757 5757 5758 5758 5757 5756
5716 5715 5715 5714 5714 5713 5712 5711 5710 5709 5708 5707 5706 5705 5704 5704 5703 5702 5701 5701 5700 5700 5700 5700 5700 5700 5701 5701 5702 5702 5703 5704 5705 5706 5707 5709 5711 5712 5714 5716 5718 5720 5721 5723 5724 5726 5727 5728 5730 5731 5733 5734 5736 5737 5739 5740 5742 5743 5745 5746 5747 5748 5748 5749 5750 5750 5751 5752 5752 5753 5753 5754 5755 5755 5755 5755 5755 5754 5754 5755 5755 5755 5755 5755 5754 5753
5715 5715 5715 5714 5714 5714 5713 5712 5711 5710 5710 5709 5708 5708 5707 5706 5705 5705 5704 5704 5703 5703 5703 5703 5703 5704 5704 5705 5705 5706 5707 5708 5709 5710 5711 5712 5714 5715 5716 5718 5719 5720 5721 5722 5724 5725 5726 5728 5729 5731 5732 5734 5735 5737 5738 5739 5741 5742 5743 5744 5745 5746 5746 5747 5748 5748 5749 5750 5750 5750 5751 5751 5751 5751 5752 5752 5752 5752 5752 5753 5753 5753 5753 5752 5751 5750
5714 5714 5714 5714 5714 5714 5714 5713 5712 5711 5711 5710 5710 5709 5709 5708 5708 5707 5707 5706 5705 5705 5705 5705 5706 5706 5706 5707 5708 5708 5709 5710 5711 5712 5713 5714 5715 5716 5716 5717 5718 5719 5721 5722 5724 5725 5727 5728 5729 5731 5732 5734 5735 5736 5738 5739 5740 5741 5742 5743 5743 5744 5745 5745 5746 5746 5747 5747 5747 5747 5748 5748 5748 5749 5749 5749 5749 5749 5750 5750 5750 5750 5749 5749 5748 5747
5714 5714 5713 5713 5713 5714 5714 5714 5713 5712 5712 5711 5711 5710 5710 5709 5709 5709 5709 5708 5708 5707 5707 5707 5707 5708 5708 5708 5709 5710 5711 5711 5712 5713 5714 5714 5715 5716 5716 5717 5718 5720 5721 5723 5724 5725 5727 5728 5729 5731 5732 5733 5734 5736 5737 5738 5738 5739 5740 5741 5741 5742 5743 5743 5744 5744 5744 5744 5744 5745 5745 5746 5746 5746 5746 5746 5746 5747 5747 5747 5746 5746 5746 5745 5744 5743
5714 5713 5713 5713 5712 5713 5713 5714 5714 5713 5712 5712 5712 5711 5711 5710 5710 5710 5710 5710 5710 5709 5709 5709 5709 5709 5709 5710 5710 5711 5711 5712 5713 5713 5714 5714 5715 5716 5717 5718 5719 5720 5722 5723 5724 5726 5727 5728 5729 5730 5731 5732 5733 5734 5735 5736 5737 5738 5738 5739 5740 5740 5741 5741 5741 5741 5741 5741 5742 5742 5742 5743 5743 5743 5743 5743 5743 5743 5743 5743 5743 5742 5742 5741 5741 5740
5713 5713 5712 5712 5712 5712 5712 5713 5713 5713 5713 5713 5712 5712 5712 5711 5711 5710 5710 5710 5710 5710 5710 5710 5710 5710 5711 5711 5711 5712 5712 5712 5713 5714 5714 5715 5716 5717 5718 5719 5720 5721 5722 5724 5725 5726 5727 5728 5729 5730 5731 5732 5733 5733 5734 5735 5736 5736 5737 5737 5738 5738 5738 5738 5738 5739 5739 5739 5739 5739 5740 5740 5740 5740 5740 5740 5740 5740 5740 5739 5739 5739 5739 5738 5738 5738
5712 5712 5712 5711 5711 5711 5711 5712 5712 5713 5713 5713 5713 5712 5712 5712 5711 5711 5711 5710 5710 5710 5711 5711 5711 5711 5711 5712 5712 5712 5713 5713 5714 5714 5715 5716 5717 5718 5719 5720 5721 5722 5723 5724 5725 5726 5727 5728 5729 5730 5730 5731 5732 5732 5733 5734 5734 5735 5735 5735 5735 5736 5736 5736 5736 5736 5736 5736 5736 5736 5737 5737 5737 5736 5736 5736 5736 5736 5736 5736 5736 5736 5736 5735 5735 5735
5711 5711 5711 5711 5711 5710 5710 5711 5711 5711 5712 5712 5712 5712 5712 5712 5712 5712 5711 5711 5711 5711 5711 5711 5711 5712 5712 5712 5713 5713 5714 5714 5715 5715 5716 5717 5718 5718 5719 5720 5721 5722 5723 5724 5725 5726 5726 5727 5728 5729 5729 5730 5730 5731 5731 5732 5732 5732 5732 5732 5732 5733 5733 5733 5733 5733 5733 5733 5733 5733 5733 5733 5733 5733 5733 5733 5733 5733 5732 5733 5733 5733 5732 5732 5732 5732
5710 5710 5710 5710 5710 5710 5710 5710 5710 5710 5710 5711 5711 5712 5712 5712 5712 5712 5712 5712 5712 5712 5711 5711 5712 5712 5712 5712 5713 5713 5714 5714 5715 5715 5716 5717 5718 5719 5719 5720 5721 5722 5723 5723 5724 5725 5726 5726 5727 5727 5728 5728 5728 5728 5729 5729 5729 5729 5729 5729 5729 5729 5729 5730 5730 5730 5730 5730 5730 5730 5730 5730 5730 5729 5730 5729 5729 5729 5729 5729 5729 5729 5729 5729 5729 5728
5709 5709 5709 5709 5708 5708 5708 5708 5708 5709 5709 5709 5710 5710 5710 5711 5711 5712 5712 5712 5712 5712 5712 5712 5712 5712 5712 5713 5713 5713 5714 5714 5714 5715 5716 5717 5717 5718 5719 5720 5721 5722 5722 5723 5724 5724 5725 5725 5725 5725 5726 5726 5726 5726 5726 5726 5726 5726 5726 5726 5726 5726 5727 5727 5727 5727 5727 5727 5727 5727 5727 5727 5727 5727 5727 5727 5726 5726 5726 5726 5726 5726 5725 5725 5725 5724
5707 5707 5708 5707 5707 5707 5707 5707 5707 5707 5707 5708 5708 5708 5708 5709 5709 5710 5710 5711 5711 5711 5711 5711 5712 5712 5712 5713 5713 5713 5713 5714 5714 5715 5716 5717 5717 5718 5719 5720 5721 5721 5722 5722 5723 5723 5723 5723 5723 5723 5723 5723 5723 5723 5723 5723 5723 5723 5723 5723 5723 5723 5724 5724 5724 5724 5724 5724 5724 5724 5724 5724 5723 5724 5723 5723 5723 5723 5722 5722 5722 5722 5722 5721 5721 5721
5705 5706 5706 5705 5705 5705 5704 5704 5705 5705 5705 5706 5706 5706 5706 5707 5707 5708 5709 5709 5710 5710 5710 5711 5711 5712 5712 5712 5713 5713 5713 5714 5714 5715 5716 5717 5717 5718 5719 5719 5720 5721 5721 5721 5722 5722 5722 5722 5722 5722 5721 5721 5721 5721 5721 5721 5720 5720 5720 5720 5720 5720 5720 5720 5720 5721 5721 5721 5721 5720 5720 5720 5720 5720 5720 5720 5720 5719 5719 5719 5719 5719 5718 5717 5717 5717
5703 5704 5703 5702 5703 5702 5702 5702 5703 5703 5704 5704 5704 5704 5705 5705 5705 5706 5706 5707 5708 5709 5709 5710 5710 5711 5711 5712 5712 5713 5713 5714 5714 5715 5715 5716 5717 5717 5718 5719 5719 5719 5720 5720 5720 5720 5720 5720 5720 5720 5719 5719 5719 5719 5719 5718 5718 5718 5717 5717 5717 5717 5717 5717 5717 5717 5717 5717 5717 5717 5717 5717 5717 5716 5716 5716 5716 5716 5715 5715 5715 5715 5714 5713 5713 5713
5700 5700 5699 5699 5700 5700 5700 5700 5701 5701 5701 5702 5702 5702 5702 5703 5703 5704 5705 5705 5706 5707 5708 5709 5709 5710 5711 5711 5712 5712 5713 5713 5714 5714 5715 5715 5716 5716 5717 5717 5718 5718 5718 5718 5718 5718 5718 5718 5718 5717 5717 5717 5716 5716 5716 5716 5716 5716 5715 5715 5714 5714 5714 5714 5713 5713 5713 5713 5713 5713 5713 5713 5713 5713 5713 5712 5712 5712 5712 5711 5711 5711 5710 5709 5709 5709
5696 5696 5696 5697 5698 5698 5697 5697 5698 5698 5699 5699 5700 5700 5700 5701 5701 5702 5703 5703 5704 5705 5706 5707 5708 5708 5709 5710 5711 5711 5712 5712 5713 5713 5714 5714 5715 5715 5716 5716 5716 5717 5717 5717 5717 5717 5716 5716 5716 5715 5715 5714 5714 5714 5714 5714 5714 5713 5712 5712 5711 5711 5711 5710 5710 5710 5710 5710 5710 5710 5710 5710 5709 5709 5709 5709 5708 5708 5708 5707 5707 5707 5706 5705 5705 5705